Find Starlink 3088

NORAD ID: 49163 Int'l Des: 2021-082 Owner: SPXS Country: US Constellation: starlink operational
LEOCIRCULAR

实时位置

正在加载3D地球...

关于 Starlink 3088

正在加载描述...

即将过境

Passes for default location (London). Set your location on the main map for personalized predictions.

高度历史

Loading altitude history...

两行轨道根数

1 49163U 21082AK 26104.91753264 -.00003416 00000-0 -28456-3 0 9990
2 49163 70.0021 184.0100 0002738 279.1281 80.9568 14.97527955253032
Epoch: Apr 14, 2026 • Age: 7 hours

当前状态

高度 583.0 km
速度 7.57 km/s
星下点 48.81°N, 65.66°W
发射日期 Sep 14, 2021
运行时间 4.5 years
类型 internet

技术详情

分类 Payload
质量 297.00 kg
干质量 275.00 kg
总质量 297.00 kg
长度 0.20 m
直径 2.80 m
跨度 9.00 m
形状 Box + pan
制造商 SPXS
平台类型 Starlink
阶段状态 In Orbit
所有者/国家 SPXS/US

Most Searched